YAOGAN 27

导读

YAOGAN 27即遥感二十七号卫星,是中国研制发射的遥感系列卫星,于2015年8月27日在太原卫星发射中心,由长征四号丙运载火箭送入预定轨道。作为中国遥感星座的组成部分,它运行于低地球轨道,主要服务于科学试验、国土资源普查、农作物估产以及防灾减灾等领域,能获取高分辨率地球观测数据,为国民经济建设提供信息支撑,此次任务也是长征系列运载火箭的第207次飞行。

基本信息
目录编号:
40878
目录名称:
YAOGAN 27
国际标识:
2015-040A
轨道中心:
EARTH
卫星名称:
YAOGAN 27
卫星全名:
--
卫星状态:
在轨 (已飞行4036 天)
发射日期:
2015-08-27 UTC
国别 :
中国 (CN)
星等 :
--
该卫星已列入 空间交会检测服务 Space Conjunction Data Service (SCDS) ,当前飞行风险评估等级: 无高风险
轨道信息
数据来源 国际轨道数据 AOE轨道数据
星历时间 2026-09-14T07:20:43+0800
5小时前
查看轨道信息
2026-09-11T13:00:00+0800
3天前
查看轨道信息
半长轴 7577.892km 7577.888km
偏心率 0.0008547 0.0008727
轨道倾角 100.126° 100.125°
近地点辐角 14.459° 22.009°
升交点赤经 239.537° 236.892°
平近点角 345.677° 207.176°
近地点 1193.278km 1193.137km
远地点 1206.232km 1206.365km
周期 109.416分钟 109.416分钟
每日圈数 13.160737 13.160747
详细信息
使用方式:
暂无
2D轨道图
3D轨道图
轨道高度分析图
轨道倾角分析图
轨道综合分析图
查看轨道综合分析图
交会数据列表
事件ID 空间交会对象 最接近时刻(TCA) 交会距离 交会风险概率(CRP) 交会风险指数(CRI) 操作
CDM_260915-012004-087804-530424
2026-09-15T
01:20:01+0000
2.654 km
极远距离
1.462629E-6 低风险 0.38
与全量物体交会距离演化趋势 订阅飞行安全评估服务
与全量物体交会风险概率演化趋势 订阅飞行安全评估服务